EB5EEV-10 Weather Reports


time (UTC)temp
F
wind
direction
speed
knots
gust
knots
rain 1hr
in
rain 24hr
in
rain mn
in
humidity
%
barometer
mb
20260506201958 0 0 0.0 0.0 0.00 0.00 0.00 100 1008.6
20260506200245 0 0 0.0 0.0 0.00 0.00 0.00 100 1008.3
20260506194517 0 0 0.0 0.0 0.00 0.00 0.00 100 1007.8
20260506192815 0 0 0.0 0.0 0.00 0.00 0.00 100 1007.7
20260506190955 0 0 0.0 0.0 0.00 0.00 0.00 100 1007.6
20260506185255 0 0 0.0 0.0 0.00 0.00 0.00 100 1007.6
20260506183507 0 0 0.0 0.0 0.00 0.00 0.00 100 1007.6
20260506181630 0 0 0.0 0.0 0.00 0.00 0.00 100 1007.5
20260506174157 0 0 0.0 0.0 0.00 0.00 0.00 100 1007.5
20260506172315 0 0 0.0 0.0 0.00 0.00 0.00 100 1007.6
20260506170602 0 0 0.0 0.0 0.00 0.00 0.00 100 1007.5
20260506155332 0 0 0.0 0.0 0.00 0.00 0.00 100 1007.7
20260506153557 68 0 0.0 0.0 0.00 0.00 0.00 6 1007.5
20260506144242 68 326 0.9 5.2 0.00 0.00 0.00 6 1007.8
20260506142323 68 318 2.6 2.6 0.00 0.00 0.00 6 1007.9
20260506140544 68 290 1.7 5.2 0.00 0.00 0.00 6 1008.1
20260506134752 67 273 0.9 1.7 0.00 0.00 0.00 6 1008.3
20260506133106 69 293 0.9 3.5 0.00 0.00 0.00 6 1008.2
20260506131322 68 316 0.9 2.6 0.00 0.00 0.00 6 1008.3
20260506125422 0 0 0.0 0.0 0.00 0.00 0.00 100 1008.5
20260506123702 0 0 0.0 0.0 0.00 0.00 0.00 100 1008.5
20260506120152 66 185 1.7 7.0 0.00 0.00 0.00 6 1009.2
20260506114322 66 185 1.7 7.0 0.00 0.00 0.00 6 1009.2
20260506104727 66 185 1.7 7.0 0.00 0.00 0.00 6 1009.2
20260506103042 68 0 0.0 0.9 0.00 0.00 0.00 6 1009.1
20260506101227 68 229 1.7 7.0 0.00 0.00 0.00 6 1009.3
20260506095407 67 165 1.7 1.7 0.00 0.00 0.00 6 1009.2
20260506093635 66 244 2.6 5.2 0.00 0.00 0.00 6 1009.2
20260506091745 67 148 0.9 3.5 0.00 0.00 0.00 6 1009.0
20260506090007 65 153 0.9 5.2 0.00 0.00 0.00 7 1008.9
20260506082337 0 0 0.0 0.0 0.00 0.00 0.00 100 1008.8
20260506080552 0 0 0.0 0.0 0.00 0.00 0.00 100 1008.7
20260506073013 0 0 0.0 0.0 0.00 0.00 0.00 100 1008.6
20260506071134 0 0 0.0 0.0 0.00 0.00 0.00 100 1008.7
20260506061803 62 0 0.0 0.0 0.00 0.00 0.00 7 1008.8
20260506050412 61 172 0.9 0.9 0.00 0.00 0.00 7 1008.1
20260506044557 62 0 0.0 1.7 0.00 0.00 0.00 8 1007.9
20260506042657 62 129 0.9 1.7 0.00 0.00 0.00 8 1007.9
20260506040827 62 0 0.0 0.9 0.00 0.00 0.00 8 1007.8
20260506035142 62 165 1.7 4.3 0.00 0.00 0.00 8 1007.9
20260506033357 63 0 0.0 0.9 0.00 0.00 0.00 8 1007.9
20260506031552 63 0 0.0 0.9 0.00 0.00 0.00 8 1007.8
20260506025847 63 0 0.0 0.0 0.00 0.00 0.00 8 1007.9
20260506024132 63 133 1.7 1.7 0.00 0.00 0.00 8 1007.9
20260506022452 63 130 0.9 1.7 0.00 0.00 0.00 8 1008.0
20260506020750 64 0 0.0 0.9 0.00 0.00 0.00 8 1008.0
20260506015114 64 0 0.0 1.7 0.00 0.00 0.00 8 1007.9
20260506013215 64 0 0.0 0.9 0.00 0.00 0.00 8 1008.0
20260506011547 64 124 0.9 1.7 0.00 0.00 0.00 8 1008.1
20260506005909 64 152 0.9 1.7 0.00 0.00 0.00 7 1008.3
20260506004238 64 127 0.9 1.7 0.00 0.00 0.00 8 1008.4
20260506002508 64 146 0.9 1.7 0.00 0.00 0.00 8 1008.5
20260506000634 64 163 1.7 1.7 0.00 0.00 0.00 8 1008.5
20260505234837 64 157 1.7 3.5 0.00 0.00 0.00 8 1008.5
20260505233113 64 116 7.8 7.8 0.00 0.00 0.00 8 1008.4
20260505231312 64 128 2.6 5.2 0.00 0.00 0.00 8 1008.4
20260505225523 64 133 5.2 11.3 0.00 0.00 0.00 8 1008.3
20260505223839 65 155 3.5 9.6 0.00 0.00 0.00 8 1008.0
20260505221944 65 131 3.5 8.7 0.00 0.00 0.00 8 1007.7
20260505220154 66 113 6.1 8.7 0.00 0.00 0.00 8 1007.7
20260505214258 69 121 5.2 7.8 0.00 0.00 0.00 5 1006.9
20260505212453 70 97 1.7 3.5 0.00 0.00 0.00 5 1006.8
20260505210644 70 153 2.6 6.1 0.00 0.00 0.00 4 1006.7
20260505204742 70 143 1.7 3.5 0.00 0.00 0.00 4 1006.6